{"data":{"norad_id":58912,"intl_designator":"2024-023H","name":"GEESAT-2 08","alt_names":[],"object_type":"PAYLOAD","status":"ACTIVE","operator":null,"country":"PRC","launch_date":"2024-02-02","launch_site_code":"XICLF","launch_vehicle":null,"mission":null,"orbit_class":"UNKNOWN","rcs_meters":null,"size_class":null,"mass_kg":null,"dimensions":null,"purposes":[],"wikipedia_slug":null,"has_3d_model":false,"image_url":null,"decayed_at":null,"tle_current":{"epoch":"2026-05-25T04:45:01.365408Z","epoch_age_seconds":51872,"freshness":"FRESH","line1":"1 58912U 24023H   26145.19793247  .00001673  00000+0  23026-3 0  9998","line2":"2 58912  49.9893  99.7105 0004260 264.9845  95.0607 14.83149249125505","mean_motion":14.83149249,"eccentricity":0.000426,"inclination_deg":49.9893,"raan_deg":99.7105,"arg_perigee_deg":264.9845,"mean_anomaly_deg":95.0607,"bstar":0.00023026,"rev_number":12550,"period_min":97.09070081591,"perigee_km":616.42012863792,"apogee_km":622.38203108197,"semimajor_km":6997.5380798599,"source":"CELESTRAK","updated_at":"2026-05-25T13:38:01.075716Z"}}}